FLOCK 4Y 17

导读

FLOCK 4Y 17是美国Planet公司所属FLOCK卫星星座中的一颗光学遥感卫星,由SpaceX公司于2023年1月3日通过“猎鹰9”号火箭,在“运输者-6”拼单发射任务中送入太空。作为“超级鸽群”卫星的一员,它具备高分辨率对地成像能力,主要用于提供全球对地观测数据,服务于环境监测、农业评估、城市规划、灾害监测以及地理信息更新等多个领域,是Planet公司构建全球高频次遥感观测星座的组成部分,进一步强化了美国在商业遥感卫星领域的覆盖能力。

基本信息
目录编号:
55031
目录名称:
FLOCK 4Y 17
国际标识:
2023-001Y
轨道中心:
EARTH
卫星名称:
FLOCK 4Y 17
卫星全名:
--
卫星状态:
已陨落 最后检测时间 2025-07-12
发射日期:
2023-01-03 UTC
国别 :
美国 (US)
星等 :
--
轨道信息
数据来源 国际轨道数据
星历时间: 2025-07-06T06:11:42+0800
轨道信息已过期385天
半长轴: 6549.727km
偏心率: 0.0015306
轨道倾角: 97.337°
近地点辐角 259.842°
升交点赤经 263.236°
平近点角 100.115°
近地点: 161.566km
远地点: 181.618km
周期: 87.921分钟
每日圈数: 16.378271
详细信息
使用方式:
暂无